[[{"header":{"parameterUnit":"m.s-1","parameterCategory":1,"la1":30.2991,"la2":30.254,"lo1":-89.0895,"lo2":-89.0444,"dy":0.0017,"dx":0.0017,"nx":28,"ny":28,"refTime":"2024-04-09T21:00:00:Z","depth":0,"parameterNumber":2,"parameterNumberName":"U-component_of_WINDS"},"data":[0,0,0,0,0,0,0,0,0,0,0,0,0,0,0,0,0,0,0,0,0,0,0,0,0,0,0,0,0,0,0,0,0,0,0,0,0,0,0,0,0,0,0,0,0,0,0,0,0,0,0,0,0,0,0,0,0,0,-8.4477,-8.4477,0,-8.4489,-8.4489,-8.4489,-8.437,-8.4366,-8.4363,-8.436,-8.4369,-8.4372,-8.4375,0,0,0,0,0,0,0,0,0,0,0,0,0,-8.4351,-8.4354,-8.4477,-8.4477,-8.4478,-8.4489,-8.4489,-8.4489,-8.437,-8.4366,-8.4362,-8.4359,-8.4368,-8.4371,-8.4375,0,0,0,0,0,0,0,0,0,0,0,0,0,-8.4389,-8.4355,-8.4477,-8.442,-8.4415,-8.4489,-8.4489,-8.4489,-8.4371,-8.4366,-8.4361,-8.4357,-8.4366,-8.4371,-8.4376,-8.4504,0,0,-8.4391,-8.4393,0,0,0,0,0,0,0,0,-8.4387,-8.4393,-8.4428,-8.4424,-8.4418,-8.4423,-8.4447,-8.4494,-8.4372,-8.4388,-8.436,-8.4354,-8.439,-8.4393,-8.4406,-8.4505,-8.4505,-8.4391,-8.4394,-8.4396,-8.4398,0,0,0,0,0,0,0,-8.4384,-8.4392,-8.4482,-8.4429,-8.4423,-8.4393,-8.4393,-8.4456,-8.4416,-8.4386,-8.4377,-8.438,-8.4387,-8.4401,-8.4405,-8.4505,-8.4391,-8.4396,-8.4399,-8.44,-8.4709,-8.4714,0,0,0,0,0,0,-8.439,-8.4391,-8.4481,-8.4482,-8.439,-8.4399,-8.4399,-8.4426,-8.4415,-8.4409,-8.4385,-8.4375,-8.4395,-8.44,-8.4405,-8.4552,-8.4396,-8.4401,-8.4404,-8.4704,-8.471,-8.4716,0,0,0,0,0,0,-8.4387,-8.4399,-8.4481,-8.4434,-8.4442,-8.4407,-8.4438,-8.4429,-8.4443,-8.4414,-8.4406,-8.4407,-8.4392,-8.4398,-8.448,-8.4551,-8.4403,-8.4408,-8.4698,-8.4706,-8.4713,-8.485,0,0,0,0,0,0,-8.4384,-8.4399,-8.4447,-8.4436,-8.4445,-8.4557,-8.4443,-8.4433,-8.4453,-8.444,-8.4433,-8.4427,-8.4388,-8.4474,-8.4485,-8.4555,-8.4411,-8.4691,-8.4701,-8.4711,-8.4839,-8.4862,-8.4881,0,0,0,0,0,-8.438,-8.4485,-8.445,-8.4462,-8.4505,-8.4561,-8.4566,-8.452,-8.4459,-8.4507,-8.4488,-8.4427,-8.4543,-8.4483,-8.4495,-8.4568,-8.4686,-8.4698,-8.471,-8.483,-8.4857,-8.4881,0,0,0,0,0,0,-8.4503,-8.4482,-8.4444,-8.4548,-8.4558,-8.4541,-8.4599,-8.4551,-8.4577,-8.4564,-8.4506,-8.4505,-8.4597,-8.4591,-8.4525,-8.4691,-8.4604,-8.4618,-8.4691,-8.4717,-8.4737,-8.4735,-8.4416,0,0,0,0,0,-8.4543,-8.4591,-8.457,-8.4664,-8.4671,-8.4636,-8.4658,-8.4622,-8.4629,-8.4632,-8.4619,-8.4628,-8.4666,-8.4692,-8.4725,-8.484,-8.4835,-8.4896,-8.4917,-8.4934,-8.4946,-8.5005,-8.5031,-8.4755,-8.4755,-8.4754,0,0,-8.4625,-8.4619,-8.4653,-8.4689,-8.4692,-8.4742,-8.4639,-8.4696,-8.4732,-8.464,-8.4716,-8.4709,-8.4714,-8.4813,-8.4856,-8.4811,-8.5022,-8.4949,-8.4963,-8.4966,-8.502,-8.5046,-8.5069,-8.4763,-8.4761,-8.476,0,0,-8.4797,-8.48,-8.4877,-8.4884,-8.489,-8.4866,-8.4886,-8.4878,-8.4869,-8.4945,-8.4877,-8.492,-8.4987,-8.4993,-8.5005,-8.5185,-8.5129,-8.5198,-8.5306,-8.5364,-8.5385,-8.5404,-8.5465,-8.5488,-8.5211,-8.5211,-8.5212,0,-8.4897,-8.497,-8.4923,-8.4985,-8.5003,-8.4925,-8.5002,-8.501,-8.5028,-8.5041,-8.4992,-8.5075,-8.5073,-8.5171,-8.5215,-8.5229,-8.5247,-8.5195,-8.5386,-8.5405,-8.5422,-8.5479,-8.5503,-8.5219,-8.5218,-8.5218,-8.5217,0,-8.5091,-8.5144,-8.5206,-8.5225,-8.5251,-8.532,-8.5283,-8.5315,-8.5278,-8.526,-8.5338,-8.5335,-8.5365,-8.5387,-8.5352,-8.5481,-8.5453,-8.5397,-8.5306,-8.5457,-8.551,-8.5532,-8.5231,-8.5228,-8.5226,-8.5224,0,0,-8.5337,-8.5333,-8.5356,-8.5364,-8.5367,-8.5406,-8.5473,-8.5505,-8.5531,-8.5548,-8.56,-8.5661,-8.5609,-8.5623,-8.5588,-8.564,-8.5779,-8.5576,-8.5575,-8.5611,-8.5919,-8.5958,-8.5984,-8.5745,-8.5749,-8.5752,-8.5917,0,-8.5502,-8.5616,-8.5577,-8.5692,-8.5739,-8.5668,-8.5726,-8.5734,-8.572,-8.5757,-8.5741,-8.5783,-8.5713,-8.5721,-8.5769,-8.5752,-8.584,-8.574,-8.579,-8.5793,-8.5786,-8.6013,-8.6054,-8.6209,-8.5938,-8.5941,-8.5944,0,-8.5709,-8.5735,-8.5855,-8.5851,-8.5869,-8.5922,-8.5948,-8.5986,-8.5994,-8.598,-8.5998,-8.5953,-8.6017,-8.5932,-8.6018,-8.5952,-8.5971,-8.5967,-8.5972,-8.597,-8.5874,-8.6013,-8.6258,-8.628,-8.5977,-8.5974,-8.5972,0,-8.5872,-8.5937,-8.6017,-8.6027,-8.6025,-8.6064,-8.6065,-8.6068,-8.609,-8.6114,-8.6127,-8.6158,-8.6174,-8.6199,-8.6163,-8.6104,-8.6254,-8.6166,-8.6242,-8.6243,-8.6272,-8.627,-8.6519,-8.6293,-8.6293,-8.6292,-8.6292,0,-8.6058,-8.6134,-8.609,-8.6138,-8.6221,-8.6177,-8.626,-8.6253,-8.6257,-8.6303,-8.6245,-8.6288,-8.6241,-8.628,-8.6253,-8.6328,-8.6336,-8.6325,-8.6316,-8.6328,-8.6329,-8.6335,-8.6322,-8.6298,-8.6297,-8.6296,-8.6295,0,-8.6251,-8.6226,-8.6307,-8.6301,-8.6301,-8.6362,-8.6355,-8.6399,-8.6383,-8.6441,-8.6452,-8.6426,-8.6469,-8.6438,-8.648,-8.6462,-8.656,-8.6538,-8.6557,-8.6549,-8.6625,-8.6617,-8.6883,-8.6915,-8.6673,-8.6676,-8.6678,0,-8.6369,-8.6426,-8.6426,-8.6453,-8.6458,-8.6503,-8.6525,-8.6485,-8.6511,-8.6526,-8.6568,-8.6608,-8.6636,-8.6709,-8.6692,-8.6725,-8.67,-8.6792,-8.6704,-8.6714,-8.6697,-8.6692,-8.6696,-8.6808,-8.6811,-8.6813,-8.6815,0,-8.658,-8.6565,-8.6601,-8.6633,-8.6662,-8.6684,-8.6702,-8.6728,-8.6688,-8.672,-8.6764,-8.6786,-8.6831,-8.687,-8.6897,-8.6897,-8.6849,-8.6844,-8.6862,-8.6872,-8.6879,-8.6872,-8.66,-8.6836,-8.6834,-8.6832,-8.6831,-8.683,-8.6736,-8.6783,-8.6791,-8.6832,-8.6842,-8.6861,-8.6902,-8.6892,-8.6929,-8.6962,-8.6937,-8.699,-8.6998,-8.7029,-8.7036,-8.7076,-8.7038,-8.7066,-8.7072,-8.7078,-8.7087,-8.6877,-8.7081,-8.7081,-8.708,-8.7079,-8.7079,0,-8.6941,-8.6943,-8.6982,-8.701,-8.7043,-8.6999,-8.7017,-8.7047,-8.7094,-8.7106,-8.7136,-8.7187,-8.7225,-8.7214,-8.7247,-8.7281,-8.726,-8.7291,-8.7285,-8.7286,-8.7121,-8.7099,-8.7308,-8.7308,-8.7308,-8.7308,-8.7307,-8.7307,-8.705,-8.7126,-8.7113,-8.7194,-8.7196,-8.7247,-8.7261,-8.7278,-8.7287,-8.7347,-8.7379,-8.7373,-8.7375,-8.7409,-8.7441,-8.7437,-8.745,-8.7488,-8.7476,-8.732,-8.7298,-8.7276,-8.7255,-8.7493,-8.7493,-8.7637,-8.7638,-8.7639]},{"header":{"parameterUnit":"m.s-1","parameterCategory":1,"la1":30.2991,"la2":30.254,"lo1":-89.0895,"lo2":-89.0444,"dy":0.0017,"dx":0.0017,"nx":28,"ny":28,"refTime":"2024-04-09T21:00:00:Z","depth":0,"parameterNumber":3,"parameterNumberName":"V-component_of_WINDS"},"data":[0,0,0,0,0,0,0,0,0,0,0,0,0,0,0,0,0,0,0,0,0,0,0,0,0,0,0,0,0,0,0,0,0,0,0,0,0,0,0,0,0,0,0,0,0,0,0,0,0,0,0,0,0,0,0,0,0,0,2.9452,2.9452,0,2.941,2.9409,2.9409,2.9384,2.9384,2.9384,2.9384,2.9335,2.9334,2.9333,0,0,0,0,0,0,0,0,0,0,0,0,0,2.9508,2.9507,2.9452,2.9451,2.9451,2.941,2.9409,2.9409,2.9384,2.9384,2.9384,2.9383,2.9335,2.9334,2.9333,0,0,0,0,0,0,0,0,0,0,0,0,0,2.9476,2.9507,2.9452,2.9434,2.9432,2.941,2.9409,2.9409,2.9384,2.9384,2.9384,2.9383,2.9336,2.9334,2.9332,2.9324,0,0,2.9327,2.9326,0,0,0,0,0,0,0,0,2.9478,2.9474,2.9437,2.9435,2.9433,2.9402,2.9411,2.938,2.9384,2.9402,2.9384,2.9383,2.9357,2.9354,2.9346,2.9322,2.932,2.9327,2.9326,2.9325,2.9324,0,0,0,0,0,0,0,2.948,2.9476,2.9435,2.9436,2.9434,2.9427,2.9422,2.9405,2.9381,2.94,2.9398,2.9394,2.9356,2.9348,2.9344,2.9319,2.9327,2.9325,2.9324,2.9323,2.9288,2.9288,0,0,0,0,0,0,2.9486,2.9478,2.9436,2.9434,2.9456,2.9426,2.942,2.9412,2.9381,2.9376,2.9394,2.9393,2.9351,2.9347,2.9343,2.9332,2.9325,2.9323,2.9322,2.9288,2.9288,2.9288,0,0,0,0,0,0,2.9487,2.9483,2.9438,2.9455,2.9449,2.9425,2.9415,2.9411,2.9403,2.9376,2.9371,2.939,2.935,2.9345,2.933,2.933,2.9322,2.9321,2.9288,2.9288,2.9288,2.931,0,0,0,0,0,0,2.9489,2.9483,2.948,2.9456,2.9448,2.9427,2.9415,2.941,2.94,2.9399,2.9371,2.9367,2.935,2.9333,2.9328,2.9327,2.9319,2.9288,2.9288,2.9288,2.9309,2.9311,2.9313,0,0,0,0,0,2.9491,2.9487,2.948,2.9475,2.9445,2.9427,2.9423,2.9405,2.9401,2.9397,2.9381,2.9368,2.9331,2.9331,2.9326,2.9325,2.9288,2.9288,2.9288,2.9309,2.9311,2.9313,0,0,0,0,0,0,2.9509,2.9483,2.9476,2.9463,2.9448,2.9423,2.9418,2.9408,2.9392,2.939,2.9368,2.9362,2.9349,2.9335,2.9336,2.9316,2.9308,2.9307,2.9325,2.9327,2.9329,2.9332,2.9318,0,0,0,0,0,2.9513,2.9502,2.9479,2.947,2.9463,2.9442,2.9434,2.9422,2.9404,2.9397,2.9379,2.9361,2.9346,2.9336,2.932,2.9308,2.9302,2.9305,2.9306,2.9308,2.9307,2.9301,2.9302,2.929,2.929,2.929,0,0,2.9518,2.9502,2.9496,2.9473,2.946,2.9449,2.9436,2.9424,2.9415,2.9394,2.9379,2.9366,2.9344,2.9331,2.9324,2.9319,2.931,2.9308,2.931,2.9308,2.9302,2.9303,2.9304,2.929,2.929,2.929,0,0,2.9522,2.9509,2.9501,2.9489,2.947,2.9456,2.9455,2.9432,2.9423,2.9408,2.9393,2.9381,2.9355,2.9341,2.933,2.9333,2.932,2.9328,2.9336,2.9331,2.9332,2.9332,2.9334,2.9334,2.9327,2.9328,2.9328,0,2.953,2.9514,2.9498,2.9488,2.9478,2.9462,2.9453,2.9441,2.9417,2.9411,2.9407,2.9375,2.9359,2.9343,2.9344,2.9336,2.9333,2.933,2.9333,2.9334,2.9334,2.9335,2.9336,2.9329,2.9328,2.9328,2.9328,0,2.9526,2.9515,2.951,2.9491,2.9481,2.9471,2.9453,2.9445,2.9435,2.9422,2.9408,2.9389,2.937,2.9365,2.9354,2.9348,2.9346,2.9338,2.9329,2.9337,2.9337,2.9338,2.933,2.933,2.9329,2.9329,0,0,2.9538,2.9512,2.951,2.9502,2.9481,2.9472,2.9462,2.9446,2.944,2.9424,2.9415,2.9395,2.9388,2.9376,2.9363,2.9359,2.9363,2.9351,2.935,2.9354,2.9356,2.9363,2.9363,2.9355,2.9355,2.9355,2.9358,0,2.9539,2.9523,2.9509,2.9497,2.9487,2.9472,2.9464,2.945,2.9438,2.9427,2.9413,2.94,2.9391,2.9384,2.9379,2.9364,2.9363,2.9363,2.9346,2.9346,2.9352,2.9364,2.937,2.9373,2.9358,2.9358,2.9358,0,2.9537,2.9526,2.9513,2.9496,2.9491,2.9484,2.9469,2.9459,2.9443,2.9435,2.9423,2.9411,2.94,2.9393,2.9378,2.9378,2.9371,2.9362,2.9362,2.9359,2.9352,2.9361,2.9374,2.9374,2.9358,2.9358,2.9358,0,2.9549,2.9529,2.952,2.9513,2.9492,2.9487,2.9478,2.9462,2.9454,2.9441,2.9435,2.942,2.9411,2.94,2.9384,2.938,2.937,2.9362,2.9362,2.9363,2.936,2.936,2.9372,2.9356,2.9356,2.9356,2.9356,0,2.9551,2.9544,2.9525,2.9519,2.9511,2.9496,2.9488,2.9477,2.9464,2.9455,2.9441,2.9433,2.9413,2.9402,2.9389,2.9379,2.9375,2.9368,2.9364,2.9369,2.937,2.9363,2.9362,2.9356,2.9356,2.9356,2.9356,0,2.9561,2.9548,2.9537,2.9519,2.9514,2.9509,2.9494,2.9487,2.9476,2.9465,2.9462,2.9443,2.9431,2.9414,2.9395,2.9387,2.9378,2.9372,2.9384,2.9382,2.9383,2.9384,2.9391,2.9391,2.9375,2.9375,2.9375,0,2.9563,2.9558,2.9541,2.9535,2.9527,2.9517,2.951,2.9495,2.9487,2.9471,2.9466,2.9453,2.9442,2.9422,2.9406,2.9392,2.9386,2.939,2.9384,2.9389,2.9387,2.9387,2.9387,2.9391,2.9391,2.9391,2.9392,0,2.9569,2.9563,2.9554,2.9542,2.9534,2.9524,2.9513,2.9509,2.9492,2.9484,2.9472,2.9464,2.9447,2.9433,2.9418,2.9407,2.9397,2.9394,2.9394,2.9398,2.9405,2.9401,2.9388,2.9393,2.9393,2.9393,2.9393,2.9393,2.9575,2.957,2.9558,2.9548,2.9539,2.953,2.9524,2.9513,2.9503,2.9489,2.9481,2.947,2.9455,2.9434,2.9424,2.9415,2.941,2.9409,2.9409,2.9409,2.9411,2.9407,2.9412,2.9412,2.9412,2.9412,2.9412,0,2.958,2.9572,2.9563,2.955,2.9543,2.9536,2.9524,2.9518,2.9509,2.9497,2.9487,2.9474,2.9462,2.9447,2.9434,2.9429,2.9424,2.9426,2.9426,2.9424,2.9415,2.9417,2.9431,2.9431,2.9431,2.9431,2.9431,2.9431,2.9581,2.9574,2.9567,2.9555,2.9547,2.9537,2.9531,2.9523,2.9514,2.9501,2.9492,2.9483,2.947,2.9456,2.9445,2.9441,2.9436,2.944,2.9435,2.9426,2.9424,2.9423,2.9425,2.944,2.944,2.9444,2.9444,2.9444]}]]